METEOR 2-5 DEB, 28555

Orbit data source: Space-Track

METEOR 2-5 DEB, 28555 is space debris in LEO originally from a launch on Wed, 31 Oct 1979 UTC launched from the Plesetsk Missile And Space Complex (PKMTR). Debris objects in space refer to the collection of defunct objects orbiting the Earth. Examples of debris include non-operational satellites, rocket bodies, and fragments generated from explosions, collisions, or faulty payload assembly.

Loading next visibility...
Identifier
28555, 1979-095D
Orbit
LEO
Country
Flag of CISCIS
Related business
Manufacturer
Unknown
Mission
Spacecraft
Bus & Motor
Unknown
Mass
Unknown
Launch date (UTC)
1979-10-31 (46 years ago)
Launch vehicle
Unknown
Launch site
Plesetsk Missile And Space Complex (PKMTR)
Object type
Payload
Rocket body
Debris
Shape & HBR
Unknown shape, 0.1 m
Radar Cross Section
Small (<0.1 m²)

Expand to show TLE details & history
Last TLE update: 1 day ago

TLE from 1 day ago
0 METEOR 2-5 DEB
1 28555U 79095D   25294.33658038  .00051926  00000-0  54690-2 0  9992
2 28555  81.1718 152.1986 0008552  46.1493 314.0426 14.89078833211894
Epoch: 2025-10-21T08:04Z
TLE epoch observation values (Epoch: 2025-10-21T08:04:40.544Z)
Latitude
-0.00007°
Longitude
1.00366°
Altitude
599.669 km
Speed
7.562 km/s
True Right ascension
10h 08m 47s
True Declination
0° 00' 00"
Sunlit
Object was in daylight at epoch
Visualization orbit readout
Latitude
Unknown
Longitude
Unknown
Altitude
Unknown
Speed
Unknown
Apparent Right ascension
Unknown
Apparent Declination
Unknown
Sunlit
N/A
Visualization observer readout
Local Sidereal Time
03:47:34
Azimuth
Unknown
Elevation
Unknown
Doppler factor
Unknown
Orbital elements
Apogee altitude
603.851 km
Perigee altitude
591.919 km
Semi-major axis
6,976.022 km
Eccentricity
0.00086
Inclination
81.1718°
RAAN
152.1986°
Arg. of periapsis
46.1493°
True anomaly
313.9721°
Mean anomaly
314.0426°
Eccentric anomaly
314.00736°
Mean motion
3.72504 °/min
Orbital period
96.64 mins
BSTAR
0.005469
Loading maneuver chart data...
Computing Atmospheric mass density...

Documentation

Showing up to 5 results
|